This is the latest recevied weather packets stored in our database for station/object ED5YAW-10. If no packets are shown the sender has not sent any weather packets the latest 1 day(s).
| Time | Temp. | Humidity | Pressure | Rain* | Wind** | Luminosity | Snow |
|---|---|---|---|---|---|---|---|
| 1778108043 | 10° C | 100% | 872 hPa | - | - | - | - |
| 1778108039 | 10° C | 100% | 872 hPa | - | - | - | - |
| 1778107439 | 10° C | 100% | 872 hPa | - | - | - | - |
| 1778106230 | 10° C | 100% | 872 hPa | - | - | - | - |
| 1778105622 | 10° C | 100% | 872 hPa | - | - | - | - |
| 1778105022 | 10° C | 100% | 872 hPa | - | - | - | - |
| 1778103813 | 10.56° C | 100% | 872 hPa | - | - | - | - |
| 1778103205 | 10.56° C | 100% | 872 hPa | - | - | - | - |
| 1778100792 | 11.11° C | 100% | 872 hPa | - | - | - | - |
| 1778099577 | 11.11° C | 100% | 872 hPa | - | - | - | - |
| 1778097768 | 11.67° C | 100% | 871 hPa | - | - | - | - |
| 1778097164 | 11.67° C | 100% | 871 hPa | - | - | - | - |
| 1778095955 | 12.78° C | 100% | 871 hPa | - | - | - | - |
| 1778095951 | 12.78° C | 100% | 871 hPa | - | - | - | - |
| 1778095351 | 13.33° C | 98% | 871 hPa | - | - | - | - |
| 1778095347 | 13.33° C | 98% | 871 hPa | - | - | - | - |
| 1778094744 | 13.33° C | 95% | 871 hPa | - | - | - | - |
| 1778094136 | 13.89° C | 89% | 871 hPa | - | - | - | - |
| 1778093536 | 13.89° C | 85% | 871 hPa | - | - | - | - |
| 1778089910 | 17.78° C | 43% | 870 hPa | - | - | - | - |
| 1778089906 | 17.78° C | 43% | 870 hPa | - | - | - | - |
| 1778088093 | 18.33° C | 34% | 871 hPa | - | - | - | - |
| 1778086280 | 19.44° C | 32% | 871 hPa | - | - | - | - |
| 1778085680 | 20° C | 32% | 871 hPa | - | - | - | - |
| 1778085676 | 20° C | 32% | 871 hPa | - | - | - | - |
* Rain since midnight (hover to see other rain measurements)
** Current wind speed in m/s (hover to see current wind gust speed)